#timestamp,LO_Frequency,Hit,StdDev 
1649793615.6,286047015.0,N
1649793635.5,286047012.8,N
1649793655.3,286047013.4,N
1649793675.1,286047014.0,Y
1649793695.9,286046999.8,P
1649793715.7,286047000.8,N
1649793735.5,286047004.2,N
1649793755.4,286047008.9,N
1649793775.2,286047005.1,N
1649793795.1,286047003.1,N
1649793796.0,286047003.1,N
1649793815.8,286047001.2,N
1649793835.6,286046994.9,N
1649793855.5,286046999.5,N
1649793875.3,286046997.8,N
1649793895.1,286046996.0,N
1649793915.9,286046996.1,N
1649793935.7,286047001.0,N
1649793955.6,286046997.1,N
1649793975.4,286046996.2,N
1649793995.2,286046994.1,N
1649794015.1,286046993.9,N
1649794016.0,286046993.9,N
1649794035.8,286046997.0,N
1649794055.6,286046998.6,N
1649794075.5,286046993.5,N
1649794095.3,286046991.3,N
1649794115.2,286046988.0,N
1649794135.9,286046984.7,N
1649794155.7,286046991.2,N
1649794175.6,286046996.5,N
1649794195.4,286046997.5,N
1649794215.2,286046999.6,N
1649794235.1,286046998.5,N
1649794236.0,286046998.5,N
1649794255.8,286046997.1,N
1649794275.7,286047000.4,N
1649794295.5,286047003.7,N
1649794315.3,286047002.8,N
1649794335.2,286046999.0,N
1649794355.0,286047002.2,N
1649794355.9,286047002.2,N
1649794375.7,286046997.5,N
1649794395.6,286046990.2,N
1649794415.4,286046986.4,Y
1649794435.3,286046983.8,P
1649794455.1,286046987.8,N
1649794475.8,286046989.1,N
1649794495.7,286046988.5,N
1649794515.5,286046990.2,N
1649794535.4,286046986.3,Y
1649794555.2,286046996.6,P
1649794575.0,286046997.7,N
1649794575.9,286046997.7,N
1649794595.8,286046995.4,N
1649794615.6,286046994.0,N
1649794635.4,286046993.3,N
1649794655.3,286046991.8,N
1649794675.1,286046991.4,Y
1649794695.9,286046995.6,P
1649794715.7,286046996.4,P
1649794735.5,286046993.5,P
1649794755.4,286046996.0,Y
1649794775.2,286046999.8,P
1649794795.1,286047002.4,N
1649794796.0,286047002.4,N
1649794815.8,286047002.6,N
1649794835.6,286047001.8,N
1649794855.5,286047003.3,N
1649794875.3,286047003.8,N
1649794895.1,286047004.8,N
1649794915.9,286047005.8,N
1649794935.7,286047003.3,N
1649794955.6,286047005.7,N
1649794975.4,286047005.5,N
1649794995.2,286047005.9,N
1649795015.1,286047004.4,N
1649795016.0,286047004.4,N
1649795035.8,286047004.1,N
1649795055.6,286047005.5,N
1649795075.5,286047004.7,N
1649795095.3,286047010.0,Y
1649795115.2,286047008.8,P
1649795135.9,286047005.6,N
1649795155.7,286047006.0,N
1649795175.6,286047005.9,Y
1649795195.4,286046997.2,P
1649795215.2,286046996.2,N
1649795235.1,286046993.8,N
1649795236.0,286046993.8,N
1649795255.8,286046993.9,N
1649795275.7,286046996.3,N
1649795295.5,286046996.0,N
1649795315.3,286046994.9,N
1649795335.2,286046998.2,N
1649795355.0,286046998.5,N
1649795355.9,286046998.5,N
1649795375.8,286047003.4,N
1649795395.6,286047003.3,N
1649795415.4,286047001.7,N
1649795435.3,286047001.8,N
1649795455.1,286047005.9,N
1649795475.8,286047002.2,N
1649795495.7,286047010.2,N
1649795515.5,286047007.9,N
1649795535.4,286047007.3,N
1649795555.2,286047008.3,N
1649795575.0,286047006.3,N
1649795575.9,286047006.3,N
1649795595.8,286047004.5,N
1649795615.6,286047011.7,N
1649795635.4,286047012.4,N
1649795655.3,286047013.6,N
1649795675.1,286047012.5,N
1649795695.9,286047019.7,Y
1649795715.7,286047014.8,P
1649795735.5,286047010.1,N
1649795755.4,286047015.5,P
1649795775.2,286047016.6,Y
1649795795.1,286047006.1,P
1649795796.0,286047006.1,N
1649795815.8,286047009.8,P
1649795835.6,286047011.9,Y
1649795855.5,286046997.8,P
1649795875.3,286046993.9,N
1649795895.1,286046996.0,N
1649795915.9,286047000.6,N
1649795935.7,286047008.1,N
1649795955.6,286047011.3,N
1649795975.4,286047012.9,N
1649795995.2,286047013.5,N
1649796015.1,286047008.2,N
1649796016.0,286047008.2,N
1649796035.8,286047009.1,N
1649796055.6,286047009.6,N
1649796075.5,286047006.8,N
1649796095.3,286047005.0,N
1649796115.2,286047005.4,N
1649796135.9,286047002.0,N
1649796155.7,286047001.9,N
1649796175.6,286047004.8,N
1649796195.4,286047006.7,N
1649796215.2,286047009.3,N
1649796235.1,286047013.9,N
1649796236.0,286047013.9,N
1649796255.8,286047010.0,N
1649796275.7,286047013.7,N
1649796295.5,286047008.2,N
1649796315.3,286047010.9,N
1649796335.2,286047011.7,N
1649796355.0,286047009.7,N
1649796355.9,286047009.7,N
1649796375.8,286047012.4,N
1649796395.6,286047008.7,N
1649796415.4,286047005.5,N
1649796435.3,286047005.0,N
1649796455.1,286047007.4,N
1649796475.8,286047007.1,N
1649796495.7,286047007.5,N
1649796515.5,286047000.1,N
1649796535.4,286047004.9,N
1649796555.2,286047015.1,Y
1649796575.0,286047003.3,P
1649796575.9,286047003.3,N
1649796595.8,286047007.8,P
1649796615.6,286047011.5,Y
1649796635.4,286047007.0,P
1649796655.3,286047006.7,P
1649796675.1,286047002.3,P
1649796695.9,286047005.7,Y
1649796715.7,286046999.1,P
1649796735.5,286047000.9,N
1649796755.4,286047001.1,N
1649796775.2,286046996.7,N
1649796795.1,286046994.6,N
1649796796.0,286046994.6,N
1649796815.8,286047002.7,N
1649796835.6,286046999.8,N
1649796855.5,286047005.8,N
1649796875.3,286047002.4,N
1649796895.1,286047006.0,N
1649796915.9,286047007.2,N
1649796935.7,286047005.9,N
1649796955.6,286047001.1,N
1649796975.4,286047002.6,N
1649796995.2,286046996.3,N
1649797015.1,286046995.7,N
1649797016.0,286046995.7,N
1649797035.8,286047004.4,N
1649797055.6,286047003.3,N
1649797075.5,286047007.0,N
1649797095.3,286047001.0,N
1649797115.2,286047004.4,N
1649797135.9,286047007.3,N
1649797155.7,286047003.0,N
1649797175.6,286046994.9,N
1649797195.4,286046996.2,N
